{"data":{"norad_id":53709,"intl_designator":"2022-107K","name":"STARLINK-4685","alt_names":[],"object_type":"PAYLOAD","status":"ACTIVE","operator":null,"country":"US","launch_date":"2022-09-05","launch_site_code":"AFETR","launch_vehicle":null,"mission":null,"orbit_class":"UNKNOWN","rcs_meters":null,"size_class":null,"mass_kg":null,"dimensions":null,"purposes":["comms"],"wikipedia_slug":null,"has_3d_model":false,"image_url":null,"decayed_at":null,"tle_current":{"epoch":"2026-05-25T00:48:00.027360Z","epoch_age_seconds":65324,"freshness":"FRESH","line1":"1 53709U 22107K   26145.03333365 -.00001019  00000+0 -45951-4 0  9990","line2":"2 53709  53.2155 266.0943 0001323  91.6973 268.4171 15.08828865206009","mean_motion":15.08828865,"eccentricity":0.0001323,"inclination_deg":53.2155,"raan_deg":266.0943,"arg_perigee_deg":91.6973,"mean_anomaly_deg":268.4171,"bstar":-4.5951e-5,"rev_number":20600,"period_min":95.438258996987,"perigee_km":538.86218433544,"apogee_km":540.69266449214,"semimajor_km":6917.9144244138,"source":"CELESTRAK","updated_at":"2026-05-25T13:38:17.533397Z"}}}